SES-3

Last updated on Thu Nov 21 2024 00:02:41 GMT+0000 (Coordinated Universal Time)

1 37748U 11035A 24324.55976017 -.00000100 00000+0 00000+0 0 9994 2 37748 0.0246 12.6402 0003299 243.5133 261.4527 1.00271381 48835
UTC large
Height (km)
Speed (km/s)
/
Latitude / Longitude
Inclination (degrees)
Orbital Period (minutes)
Azimuth
Elevation
Range (km)
Doppler Factor

Next 0 passes for location: London (51.5072 / 0.1276)

Sorry there are no passes over London.